This demonstration page uses our WeatherBlox Daily Observations layout. Learn more.

Left ArrowRight Arrow

Hourly Observations for January 13, 2017

Temp ( °F °C ) Dew Point ( °F °C ) Humidity (%) Winds ( mph kmh ) Pressure ( in mb ) Visibility ( mi km ) Precip ( " mm )
12:15 am 00:15 Cloudy 30 -1 27 -3 86 86 NNW 8 13 30.48 1032 10 16.0934 N/A
12:35 am 00:35 Cloudy 30 -1 27 -3 86 86 NNW 8 13 30.48 1032 10 16.0934 N/A
12:55 am 00:55 Cloudy 28 -2 25 -4 86 86 NNW 6 9 30.5 1033 10 16.0934 N/A
1:15 am 01:15 Mostly Cloudy 28 -2 25 -4 86 86 NNW 7 11 30.5 1033 10 16.0934 N/A
1:35 am 01:35 Partly Cloudy 28 -2 25 -4 86 86 NNW 8 13 30.53 1034 10 16.0934 N/A
1:55 am 01:55 Clear 27 -3 25 -4 93 93 NNW 9 15 30.53 1034 10 16.0934 N/A
2:15 am 02:15 Partly Cloudy 27 -3 25 -4 93 93 NNW 7 11 30.56 1035 10 16.0934 N/A
2:35 am 02:35 Mostly Cloudy 27 -3 23 -5 86 86 NNW 6 9 30.56 1035 10 16.0934 N/A
2:55 am 02:55 Cloudy 27 -3 25 -4 93 93 NNW 7 11 30.59 1036 10 16.0934 N/A
3:15 am 03:15 Partly Cloudy 27 -3 23 -5 86 86 NNW 8 13 30.59 1036 10 16.0934 N/A
3:35 am 03:35 Clear 27 -3 23 -5 86 86 NNW 7 11 30.59 1036 10 16.0934 N/A
3:55 am 03:55 Partly Cloudy 25 -4 23 -5 93 93 NW 3 6 30.62 1037 10 16.0934 N/A
4:15 am 04:15 Mostly Cloudy 27 -3 25 -4 93 93 N 7 11 30.62 1037 10 16.0934 N/A
4:35 am 04:35 Cloudy 27 -3 23 -5 86 86 N 8 13 30.62 1037 10 16.0934 N/A
4:55 am 04:55 Mostly Cloudy 27 -3 21 -6 80 80 N 9 15 30.62 1037 10 16.0934 N/A
5:15 am 05:15 Clear 27 -3 21 -6 80 80 N 7 11 30.62 1037 10 16.0934 N/A
5:35 am 05:35 Partly Cloudy 27 -3 21 -6 80 80 N 9 15 30.65 1038 10 16.0934 N/A
5:55 am 05:55 Clear 25 -4 21 -6 86 86 N 6 9 30.65 1038 10 16.0934 N/A
6:15 am 06:15 Partly Cloudy 25 -4 21 -6 86 86 N 7 11 30.65 1038 10 16.0934 N/A
6:35 am 06:35 Partly Cloudy 25 -4 23 -5 93 93 N 7 11 30.65 1038 10 16.0934 N/A
6:55 am 06:55 Clear 25 -4 21 -6 86 86 NNE 8 13 30.68 1039 10 16.0934 N/A
7:14 am 07:14 Clear 25 -4 23 -5 93 93 N 7 11 30.68 1039 10 16.0934 N/A
7:35 am 07:35 Clear 25 -4 23 -5 93 93 N 8 13 30.68 1039 10 16.0934 N/A
7:55 am 07:55 Clear 25 -4 23 -5 93 93 N 9 15 30.68 1039 7 11.26538 N/A
8:15 am 08:15 Sunny 25 -4 23 -5 93 93 NNE 9 15 30.68 1039 10 16.0934 N/A
8:35 am 08:35 Sunny 25 -4 23 -5 93 93 NNE 7 11 30.71 1040 7 11.26538 N/A
8:55 am 08:55 Sunny 27 -3 23 -5 86 86 NNE 10 17 30.71 1040 10 16.0934 N/A
9:15 am 09:15 Sunny 27 -3 23 -5 86 86 NNE 13 20 30.71 1040 10 16.0934 N/A
9:35 am 09:35 Sunny 27 -3 23 -5 86 86 NNE 12 19 30.71 1040 10 16.0934 N/A
9:55 am 09:55 Sunny 28 -2 23 -5 80 80 NE 13 20 30.71 1040 10 16.0934 N/A
10:15 am 10:15 Sunny 28 -2 23 -5 80 80 NE 14 22 30.71 1040 10 16.0934 N/A
10:35 am 10:35 Sunny 28 -2 23 -5 80 80 NNE 13 20 30.74 1041 10 16.0934 N/A
10:55 am 10:55 Sunny 28 -2 23 -5 80 80 NE 12 19 30.71 1040 10 16.0934 N/A
11:15 am 11:15 Sunny 28 -2 21 -6 74 74 NE 8 13 30.74 1041 10 16.0934 N/A
11:35 am 11:35 Sunny 28 -2 21 -6 74 74 NNE 8 13 30.77 1042 10 16.0934 N/A
11:55 am 11:55 Sunny 28 -2 23 -5 80 80 NE 8 13 30.77 1042 10 16.0934 N/A
12:15 pm 12:15 Sunny 28 -2 23 -5 80 80 NE 8 13 30.74 1041 10 16.0934 N/A
12:35 pm 12:35 Sunny 28 -2 23 -5 80 80 NE 10 17 30.74 1041 10 16.0934 N/A
12:55 pm 12:55 Sunny 30 -1 23 -5 75 75 NE 13 20 30.71 1040 10 16.0934 N/A
1:15 pm 13:15 Sunny 30 -1 23 -5 75 75 NE 14 22 30.71 1040 10 16.0934 N/A
1:35 pm 13:35 Sunny 30 -1 23 -5 75 75 NNE 13 20 30.71 1040 10 16.0934 N/A
1:55 pm 13:55 Sunny 30 -1 25 -4 80 80 NE 13 20 30.71 1040 10 16.0934 N/A
2:15 pm 14:15 Sunny 30 -1 23 -5 75 75 NNE 12 19 30.71 1040 10 16.0934 N/A
2:35 pm 14:35 Partly Cloudy 30 -1 23 -5 75 75 NE 12 19 30.71 1040 10 16.0934 N/A
2:55 pm 14:55 Partly Cloudy 30 -1 23 -5 75 75 NE 13 20 30.68 1039 10 16.0934 N/A
3:15 pm 15:15 Sunny 30 -1 23 -5 75 75 ENE 12 19 30.71 1040 10 16.0934 N/A
3:35 pm 15:35 Sunny 30 -1 23 -5 75 75 NE 10 17 30.71 1040 10 16.0934 N/A
3:55 pm 15:55 Sunny 30 -1 25 -4 80 80 ENE 12 19 30.68 1039 10 16.0934 N/A
4:15 pm 16:15 Partly Cloudy 30 -1 23 -5 75 75 ENE 10 17 30.71 1040 10 16.0934 N/A
4:35 pm 16:35 Partly Cloudy 30 -1 25 -4 80 80 ENE 9 15 30.71 1040 10 16.0934 N/A
4:55 pm 16:55 Partly Cloudy 30 -1 25 -4 80 80 ENE 10 17 30.68 1039 10 16.0934 N/A
5:15 pm 17:15 Partly Cloudy 30 -1 25 -4 80 80 ENE 12 19 30.68 1039 10 16.0934 N/A
5:35 pm 17:35 Partly Cloudy 30 -1 25 -4 80 80 ENE 10 17 30.68 1039 10 16.0934 N/A
5:55 pm 17:55 Mostly Cloudy 30 -1 23 -5 75 75 ENE 12 19 30.71 1040 10 16.0934 N/A
6:15 pm 18:15 Mostly Cloudy 30 -1 23 -5 75 75 ENE 13 20 30.71 1040 10 16.0934 N/A
6:35 pm 18:35 Partly Cloudy 30 -1 23 -5 75 75 ENE 9 15 30.71 1040 10 16.0934 N/A
6:55 pm 18:55 Clear 30 -1 25 -4 80 80 E 9 15 30.71 1040 10 16.0934 N/A
7:15 pm 19:15 Clear 30 -1 25 -4 80 80 E 10 17 30.68 1039 10 16.0934 N/A
7:35 pm 19:35 Clear 30 -1 25 -4 80 80 ENE 8 13 30.68 1039 10 16.0934 N/A
7:55 pm 19:55 Partly Cloudy 30 -1 25 -4 80 80 ENE 12 19 30.68 1039 10 16.0934 N/A
8:15 pm 20:15 Partly Cloudy 30 -1 25 -4 80 80 ENE 13 20 30.68 1039 10 16.0934 N/A
8:35 pm 20:35 Mostly Cloudy 30 -1 25 -4 80 80 E 10 17 30.65 1038 10 16.0934 N/A
8:55 pm 20:55 Cloudy 30 -1 25 -4 80 80 E 9 15 30.68 1039 10 16.0934 N/A
9:15 pm 21:15 Cloudy 30 -1 25 -4 80 80 ENE 10 17 30.65 1038 10 16.0934 N/A
9:35 pm 21:35 Cloudy 30 -1 25 -4 80 80 E 7 11 30.65 1038 10 16.0934 N/A
9:55 pm 21:55 Cloudy 30 -1 25 -4 80 80 E 6 9 30.65 1038 10 16.0934 N/A
10:15 pm 22:15 Cloudy 30 -1 25 -4 80 80 E 7 11 30.65 1038 10 16.0934 N/A
10:35 pm 22:35 Cloudy 30 -1 25 -4 80 80 E 6 9 30.65 1038 10 16.0934 N/A
10:55 pm 22:55 Cloudy 30 -1 25 -4 80 80 E 8 13 30.65 1038 10 16.0934 N/A
11:15 pm 23:15 Cloudy 30 -1 25 -4 80 80 ENE 5 7 30.65 1038 10 16.0934 N/A
11:35 pm 23:35 Cloudy 30 -1 25 -4 80 80 ENE 5 7 30.65 1038 10 16.0934 N/A
11:55 pm 23:55 Cloudy 30 -1 27 -3 86 86 ENE 6 9 30.62 1037 10 16.0934 N/A

Powered by AerisWeather